User: anonymous   Login
Location: Unspecified
(0.0000°N, 0.0000°E)
Time: 08:34:41
(UTC+00:00)
Language:

Transit 2A Rocket - Orbit

View from above orbital plane
View from above orbital plane
View from above satellite
View from above satellite

Ground track
Ground track

The orbit data is extracted from the following two-line orbital elements,

1    47U 60007C   20093.82778626 -.00000025 +00000-0 +19422-4 0  9994
2    47 066.6681 357.2413 0228475 356.6860 003.2715 14.42079844123774
Epoch (UTC): 02 April 2020 19:52:00
Eccentricity: 0.0228475
inclination: 66.6681°
perigee height: 589 km
apogee height: 914 km
right ascension of ascending node: 357.2413°
argument of perigee: 356.6860°
revolutions per day: 14.42079844
mean anomaly at epoch: 3.2715°
orbit number at epoch: 12377

The dashed part of the orbit path shows where the satellite is in the earth's shadow,  

DLR